Date String (YYYY-MM-DD hh:mm:ss) UTC,Instrument flags,Ambient pressure (hPa),Sample flow (lpm),Bypass flow (lpm),Sample temperature (°C),Ambient temperature (°C),ASC tube jacket temperature (°C),LED temperature (°C),Box temperature (°C),Sample RH (%),Span deviation,Mass concentration (μg/m³),Mass concentration (μg/m³),Mass concentration (μg/m³)
DateTimeUTC,F1_M11,P_M11,Q1_M11,Q2_M11,T1_M11,T2_M11,T3_M11,T4_M11,T5_M11,U1_M11,ZSPAN_M11,X2_M11,X0_M11,X1_M11
2023-05-10 20:00:00,,0828.6,5.00,0.00,29.7,28.1,00.0,38.0,31.3,26.4,0001.5,0007.83,0011.79,0007.32
2023-05-10 20:01:00,,0828.5,5.01,0.00,29.7,28.1,00.0,38.0,31.3,26.0,0001.7,0007.84,0011.80,0007.33
2023-05-10 20:02:00,,0828.6,5.00,0.00,29.7,28.1,00.0,38.0,31.3,26.2,0001.9,0007.83,0011.62,0007.33
2023-05-10 20:03:00,,0828.5,4.99,0.00,29.7,28.2,00.0,38.0,31.3,26.9,0001.8,0007.86,0011.57,0007.34
2023-05-10 20:04:00,,0828.5,5.00,0.00,29.7,28.2,00.0,38.0,31.3,27.2,0001.9,0007.90,0011.62,0007.38
2023-05-10 20:05:00,,0828.6,5.00,0.00,29.7,28.2,00.0,38.1,31.3,26.8,0002.1,0007.93,0011.57,0007.44
2023-05-10 20:06:00,,0828.6,5.00,0.00,29.7,28.2,00.0,38.1,31.3,26.7,0001.9,0007.96,0011.47,0007.46
2023-05-10 20:07:00,,0828.5,5.00,0.00,29.7,28.2,00.0,38.1,31.3,26.6,0001.8,0008.03,0011.47,0007.51
2023-05-10 20:08:00,,0828.5,5.00,0.00,29.7,28.2,00.0,38.1,31.3,26.9,0001.8,0008.09,0011.56,0007.54
2023-05-10 20:09:00,,0828.4,5.00,0.00,29.7,28.2,00.0,38.1,31.3,26.2,0001.8,0008.12,0011.63,0007.58
2023-05-10 20:10:00,,0828.4,4.99,0.00,29.7,28.2,00.0,38.1,31.3,25.8,0001.5,0008.12,0011.54,0007.62
2023-05-10 20:11:00,,0828.4,5.00,0.00,29.7,28.2,00.0,38.1,31.3,26.4,0001.3,0008.15,0011.52,0007.66
2023-05-10 20:12:00,,0828.4,4.99,0.00,29.7,28.2,00.0,38.1,31.3,26.1,0000.9,0008.17,0011.64,0007.67
2023-05-10 20:13:00,,0828.4,4.99,0.00,29.7,28.2,00.0,38.1,31.4,26.4,0000.7,0008.20,0011.82,0007.70
2023-05-10 20:14:00,,0828.4,5.00,0.00,29.7,28.2,00.0,38.1,31.4,27.2,0000.6,0008.26,0011.89,0007.77
2023-05-10 20:15:00,,0828.3,5.00,0.00,29.7,28.2,00.0,38.1,31.4,27.3,0000.3,0008.33,0012.08,0007.83
2023-05-10 20:16:00,,0828.3,5.00,0.00,29.7,28.2,00.0,38.1,31.4,27.6,0000.2,0008.35,0012.23,0007.84
2023-05-10 20:17:00,,0828.3,5.01,0.00,29.7,28.2,00.0,38.1,31.3,27.0,0000.0,0008.41,0012.31,0007.90
2023-05-10 20:18:00,,0828.2,5.01,0.00,29.8,28.2,00.0,38.1,31.4,26.7,-000.3,0008.46,0012.37,0007.96
2023-05-10 20:19:00,,0828.2,4.98,0.00,29.8,28.2,00.0,38.1,31.4,26.2,-000.6,0008.50,0012.47,0008.02
2023-05-10 20:20:00,,0828.2,5.00,0.00,29.8,28.3,00.0,38.1,31.4,26.3,-000.4,0008.55,0012.53,0008.07
2023-05-10 20:21:00,,0828.1,5.00,0.00,29.8,28.3,00.0,38.1,31.4,26.6,-000.2,0008.62,0012.64,0008.13
2023-05-10 20:22:00,,0828.1,5.00,0.00,29.8,28.3,00.0,38.2,31.4,26.9,0000.0,0008.70,0012.77,0008.19
2023-05-10 20:23:00,,0828.2,5.01,0.00,29.8,28.3,00.0,38.2,31.4,26.3,0000.5,0008.78,0013.14,0008.25
2023-05-10 20:24:00,,0828.1,4.99,0.00,29.8,28.3,00.0,38.2,31.4,26.4,0000.7,0008.83,0013.18,0008.30
2023-05-10 20:25:00,,0828.0,5.00,0.00,29.8,28.3,00.0,38.2,31.4,26.8,0001.0,0008.83,0013.16,0008.32
2023-05-10 20:26:00,,0828.0,5.00,0.00,29.8,28.3,00.0,38.2,31.4,27.3,0001.1,0008.83,0013.11,0008.33
2023-05-10 20:27:00,,0828.0,5.00,0.00,29.8,28.3,00.0,38.2,31.5,26.9,0001.1,0008.85,0013.46,0008.35
2023-05-10 20:28:00,,0827.9,5.01,0.00,29.8,28.4,00.0,38.2,31.5,26.8,0001.3,0008.85,0013.44,0008.35
2023-05-10 20:29:00,,0827.9,5.00,0.00,29.9,28.4,00.0,38.2,31.5,26.3,0001.6,0008.85,0013.38,0008.37
2023-05-10 20:30:00,,0827.8,5.00,0.00,29.9,28.4,00.0,38.2,31.5,26.7,0001.7,0008.86,0013.38,0008.40
2023-05-10 20:31:00,,0827.8,4.99,0.00,29.9,28.4,00.0,38.2,31.5,26.4,0001.3,0008.89,0013.64,0008.43
2023-05-10 20:32:00,,0827.8,5.00,0.00,29.9,28.4,00.0,38.2,31.5,26.4,0001.2,0008.91,0013.81,0008.45
2023-05-10 20:33:00,,0827.8,5.00,0.00,29.9,28.4,00.0,38.2,31.5,26.9,0001.1,0008.93,0013.91,0008.48
2023-05-10 20:34:00,,0827.9,5.00,0.00,29.9,28.4,00.0,38.3,31.5,26.3,0000.9,0008.94,0013.67,0008.51
2023-05-10 20:35:00,,0828.0,5.01,0.00,29.9,28.4,00.0,38.3,31.6,26.1,0000.9,0008.98,0013.50,0008.56
2023-05-10 20:36:00,,0828.1,5.00,0.00,29.9,28.5,00.0,38.3,31.5,26.1,0000.8,0009.06,0013.59,0008.62
2023-05-10 20:37:00,,0828.1,5.00,0.00,29.9,28.5,00.0,38.3,31.6,26.7,0000.7,0009.08,0013.50,0008.67
2023-05-10 20:38:00,,0828.1,5.00,0.00,30.0,28.5,00.0,38.3,31.6,26.3,0000.4,0009.14,0013.14,0008.75
2023-05-10 20:39:00,,0828.1,5.01,0.00,30.0,28.5,00.0,38.3,31.6,26.3,0000.3,0009.18,0013.21,0008.79
2023-05-10 20:40:00,,0828.1,5.00,0.00,30.0,28.5,00.0,38.3,31.6,26.4,0000.4,0009.23,0013.27,0008.82
2023-05-10 20:41:00,,0828.0,5.00,0.00,30.0,28.5,00.0,38.3,31.6,26.2,0000.6,0009.28,0013.32,0008.86
2023-05-10 20:42:00,,0828.1,5.00,0.00,30.0,28.5,00.0,38.3,31.6,26.4,0000.7,0009.32,0013.25,0008.90
2023-05-10 20:43:00,,0828.1,5.00,0.00,30.0,28.5,00.0,38.3,31.6,26.5,0000.8,0009.39,0013.21,0008.96
2023-05-10 20:44:00,,0828.1,5.01,0.00,30.0,28.5,00.0,38.3,31.6,26.6,0000.7,0009.42,0013.50,0008.99
2023-05-10 20:45:00,,0828.1,5.00,0.00,30.0,28.5,00.0,38.4,31.7,26.7,0000.5,0009.46,0013.45,0009.02
2023-05-10 20:46:00,,0828.1,5.00,0.00,30.0,28.6,00.0,38.4,31.7,26.3,0000.3,0009.47,0013.48,0009.02
2023-05-10 20:47:00,,0828.1,5.01,0.00,30.0,28.6,00.0,38.4,31.6,26.2,0000.1,0009.47,0013.46,0009.02
2023-05-10 20:48:00,,0828.2,5.00,0.00,30.0,28.6,00.0,38.4,31.7,25.9,0000.0,0009.48,0013.50,0009.02
2023-05-10 20:49:00,,0828.3,5.00,0.00,30.0,28.6,00.0,38.4,31.7,26.0,0000.2,0009.49,0013.52,0009.01
2023-05-10 20:50:00,,0828.3,4.99,0.00,30.1,28.6,00.0,38.4,31.7,26.0,0000.0,0009.50,0013.55,0009.02
2023-05-10 20:51:00,,0828.4,4.99,0.00,30.1,28.6,00.0,38.4,31.7,25.9,-000.1,0009.52,0013.89,0009.02
2023-05-10 20:52:00,,0828.4,5.00,0.00,30.1,28.6,00.0,38.4,31.7,26.2,-000.1,0009.57,0014.00,0009.04
2023-05-10 20:53:00,,0828.4,5.01,0.00,30.1,28.6,00.0,38.4,31.7,26.2,-000.1,0009.59,0013.96,0009.07
2023-05-10 20:54:00,,0828.4,5.00,0.00,30.1,28.6,00.0,38.4,31.8,26.2,0000.1,0009.62,0014.01,0009.09
2023-05-10 20:55:00,,0828.4,4.98,0.00,30.1,28.5,00.0,38.4,31.7,25.6,0000.4,0009.66,0014.13,0009.12
2023-05-10 20:56:00,,0828.4,5.00,0.00,30.1,28.5,00.0,38.5,31.7,25.6,0000.2,0009.72,0014.18,0009.15
2023-05-10 20:57:00,,0828.4,5.01,0.00,30.0,28.4,00.0,38.4,31.7,25.7,0000.2,0009.79,0014.30,0009.19
2023-05-10 20:58:00,,0828.4,5.01,0.00,30.0,28.3,00.0,38.4,31.6,25.8,0000.3,0009.82,0014.37,0009.22
2023-05-10 20:59:00,,0828.4,5.00,0.00,30.0,28.3,00.0,38.4,31.6,25.8,0000.4,0009.89,0014.51,0009.26
